Location: Espelette
(43.3402°N, 1.4474°W)
Time: 20:27:59
(UTC+00:00)

CZ-4C R/B - Pass Details

Date: 19 May 2025
Orbit: 500 x 1483 km, 63.4° (Epoch: 18 June)

Event Time Altitude Azimuth Distance (km) Brightness Sun altitude
Rises 21:16:17 0° 318° (NW) 3,869 7.5 -16.1°
Reaches altitude 10° 21:18:50 10° 313° (NW) 3,041 6.4 -16.4°
Maximum altitude 21:25:58 49° 242° (WSW) 1,657 3.7 -17.2°
Enters shadow 21:32:26 18° 177° (S) 2,969 4.5 -17.9°
